Time,TemperatureF,DewpointF,PressureIn,WindDirection,WindDirectionDegrees,WindSpeedMPH,WindSpeedGustMPH,Humidity,HourlyPrecipIn,Conditions,Clouds,dailyrainin,SoftwareType,DateUTC
2013-03-29 00:02:00,50.0,49.1,30.05,West,274,6.0,6.0,97,0.00,,,0.00,meteohub,2013-03-29 07:02:00,
2013-03-29 00:07:00,50.0,49.1,30.05,West,274,4.0,6.0,97,0.00,,,0.00,meteohub,2013-03-29 07:07:00,
2013-03-29 00:17:00,49.8,48.9,30.05,West,274,6.0,6.0,97,0.00,,,0.00,meteohub,2013-03-29 07:17:00,
2013-03-29 00:22:00,49.8,48.9,30.05,West,274,4.0,6.0,97,0.00,,,0.00,meteohub,2013-03-29 07:22:00,
2013-03-29 00:27:00,49.8,48.9,30.05,West,274,3.0,6.0,97,0.00,,,0.00,meteohub,2013-03-29 07:27:00,
2013-03-29 00:32:00,49.8,48.9,30.05,West,274,4.0,6.0,97,0.00,,,0.00,meteohub,2013-03-29 07:32:00,
2013-03-29 00:37:00,49.6,48.7,30.05,West,274,4.0,6.0,97,0.00,,,0.00,meteohub,2013-03-29 07:37:00,
2013-03-29 00:47:00,49.6,48.7,30.05,West,274,5.0,6.0,97,0.00,,,0.00,meteohub,2013-03-29 07:47:00,
2013-03-29 00:52:00,49.6,48.7,30.05,West,275,5.0,6.0,97,0.00,,,0.00,meteohub,2013-03-29 07:52:00,
2013-03-29 01:02:00,49.6,48.7,30.05,West,275,3.0,6.0,97,0.00,,,0.00,meteohub,2013-03-29 08:02:00,
2013-03-29 01:07:00,49.5,48.6,30.05,West,275,4.0,6.0,97,0.00,,,0.00,meteohub,2013-03-29 08:07:00,
2013-03-29 01:12:00,49.6,48.7,30.05,West,275,4.0,6.0,97,0.00,,,0.00,meteohub,2013-03-29 08:12:00,
2013-03-29 01:22:00,49.5,48.6,30.05,West,278,5.0,6.0,97,0.00,,,0.00,meteohub,2013-03-29 08:22:00,
2013-03-29 01:27:00,49.3,48.4,30.05,West,278,5.0,6.0,97,0.00,,,0.00,meteohub,2013-03-29 08:27:00,
2013-03-29 01:37:00,49.1,48.6,30.05,West,278,3.0,6.0,98,0.00,,,0.00,meteohub,2013-03-29 08:37:00,
2013-03-29 01:42:00,49.1,48.6,30.05,West,278,4.0,6.0,98,0.00,,,0.00,meteohub,2013-03-29 08:42:00,
2013-03-29 01:47:00,48.9,48.0,30.05,West,278,4.0,5.0,97,0.00,,,0.00,meteohub,2013-03-29 08:47:00,
2013-03-29 01:52:00,48.7,47.8,30.05,West,278,3.0,5.0,97,0.00,,,0.00,meteohub,2013-03-29 08:52:00,
2013-03-29 01:57:00,48.7,47.8,30.05,West,278,0.0,5.0,97,0.00,,,0.00,meteohub,2013-03-29 08:57:00,
2013-03-29 02:07:00,48.7,47.8,30.05,West,278,1.0,3.0,97,0.00,,,0.00,meteohub,2013-03-29 09:07:00,
2013-03-29 02:17:00,48.7,48.2,30.04,West,278,3.0,4.0,98,0.00,,,0.00,meteohub,2013-03-29 09:17:00,
2013-03-29 02:22:00,48.7,48.2,30.04,West,278,2.0,4.0,98,0.00,,,0.00,meteohub,2013-03-29 09:22:00,
2013-03-29 02:32:00,48.7,48.2,30.05,West,278,2.0,3.0,98,0.00,,,0.00,meteohub,2013-03-29 09:32:00,
2013-03-29 02:37:00,48.7,48.2,30.05,West,278,3.0,3.0,98,0.00,,,0.00,meteohub,2013-03-29 09:37:00,
2013-03-29 02:42:00,48.6,48.0,30.04,West,278,2.0,4.0,98,0.00,,,0.00,meteohub,2013-03-29 09:42:00,
2013-03-29 02:52:00,48.4,47.5,30.04,West,278,0.0,4.0,97,0.00,,,0.00,meteohub,2013-03-29 09:52:00,
2013-03-29 02:57:00,48.2,47.7,30.04,West,278,2.0,4.0,98,0.00,,,0.00,meteohub,2013-03-29 09:57:00,
2013-03-29 03:02:00,48.0,47.5,30.04,West,278,0.0,4.0,98,0.00,,,0.00,meteohub,2013-03-29 10:02:00,
2013-03-29 03:07:00,47.8,47.3,30.04,West,278,2.0,4.0,98,0.00,,,0.00,meteohub,2013-03-29 10:07:00,
2013-03-29 03:12:00,47.8,46.9,30.04,West,278,0.0,4.0,97,0.00,,,0.00,meteohub,2013-03-29 10:12:00,
2013-03-29 03:17:00,47.8,46.9,30.04,West,278,2.0,4.0,97,0.00,,,0.00,meteohub,2013-03-29 10:17:00,
2013-03-29 03:27:00,47.5,46.9,30.03,West,278,2.0,3.0,98,0.00,,,0.00,meteohub,2013-03-29 10:27:00,
2013-03-29 03:32:00,47.3,46.6,30.03,West,278,0.0,3.0,97,0.00,,,0.00,meteohub,2013-03-29 10:32:00,
2013-03-29 03:37:00,47.1,46.4,30.03,West,278,0.0,3.0,97,0.00,,,0.00,meteohub,2013-03-29 10:37:00,
2013-03-29 03:42:00,47.1,46.4,30.03,West,278,0.0,3.0,97,0.00,,,0.00,meteohub,2013-03-29 10:42:00,
2013-03-29 03:47:00,47.1,46.6,30.03,West,278,1.0,2.0,98,0.00,,,0.00,meteohub,2013-03-29 10:47:00,
2013-03-29 03:52:00,47.1,46.6,30.03,West,278,1.0,3.0,98,0.00,,,0.00,meteohub,2013-03-29 10:52:00,
2013-03-29 03:57:00,46.9,46.4,30.03,West,278,0.0,3.0,98,0.00,,,0.00,meteohub,2013-03-29 10:57:00,
2013-03-29 04:02:00,46.9,46.4,30.03,West,278,0.0,3.0,98,0.00,,,0.00,meteohub,2013-03-29 11:02:00,
2013-03-29 04:12:00,46.9,46.4,30.03,West,278,0.0,2.0,98,0.00,,,0.00,meteohub,2013-03-29 11:12:00,
2013-03-29 04:22:00,46.8,46.2,30.03,West,278,0.0,1.0,98,0.00,,,0.00,meteohub,2013-03-29 11:22:00,
2013-03-29 04:27:00,46.6,45.9,30.03,West,278,0.0,3.0,97,0.00,,,0.00,meteohub,2013-03-29 11:27:00,
2013-03-29 04:32:00,46.6,46.0,30.03,West,278,0.0,3.0,98,0.00,,,0.00,meteohub,2013-03-29 11:32:00,
2013-03-29 04:42:00,46.6,46.0,30.03,West,278,0.0,0.0,98,0.00,,,0.00,meteohub,2013-03-29 11:42:00,
2013-03-29 04:47:00,46.6,46.0,30.03,West,278,0.0,0.0,98,0.00,,,0.00,meteohub,2013-03-29 11:47:00,
2013-03-29 04:52:00,46.6,46.0,30.03,West,278,0.0,0.0,98,0.00,,,0.00,meteohub,2013-03-29 11:52:00,
2013-03-29 05:02:00,46.8,46.2,30.03,West,278,1.0,1.0,98,0.00,,,0.00,meteohub,2013-03-29 12:02:00,
2013-03-29 05:07:00,46.8,46.2,30.03,West,278,0.0,2.0,98,0.00,,,0.00,meteohub,2013-03-29 12:07:00,
2013-03-29 05:17:00,46.9,46.4,30.03,West,278,0.0,2.0,98,0.00,,,0.00,meteohub,2013-03-29 12:17:00,
2013-03-29 05:22:00,46.9,46.4,30.03,West,278,0.0,1.0,98,0.00,,,0.00,meteohub,2013-03-29 12:22:00,
2013-03-29 05:32:00,47.1,46.6,30.03,West,278,2.0,3.0,98,0.00,,,0.00,meteohub,2013-03-29 12:32:00,
2013-03-29 05:37:00,46.9,46.4,30.03,West,278,2.0,3.0,98,0.00,,,0.00,meteohub,2013-03-29 12:37:00,
2013-03-29 05:42:00,46.9,46.4,30.03,West,278,1.0,4.0,98,0.00,,,0.00,meteohub,2013-03-29 12:42:00,
2013-03-29 05:47:00,46.8,46.2,30.03,West,278,0.0,4.0,98,0.00,,,0.00,meteohub,2013-03-29 12:47:00,
2013-03-29 05:52:00,46.8,46.2,30.03,West,278,0.0,4.0,98,0.00,,,0.00,meteohub,2013-03-29 12:52:00,
2013-03-29 05:57:00,46.8,46.2,30.03,West,278,0.0,3.0,98,0.00,,,0.00,meteohub,2013-03-29 12:57:00,
2013-03-29 06:07:00,46.9,46.4,30.03,West,278,0.0,4.0,98,0.00,,,0.00,meteohub,2013-03-29 13:07:00,
2013-03-29 06:17:00,46.9,46.4,30.03,West,278,3.0,4.0,98,0.00,,,0.00,meteohub,2013-03-29 13:17:00,
2013-03-29 06:22:00,46.9,46.4,30.03,West,278,3.0,4.0,98,0.00,,,0.00,meteohub,2013-03-29 13:22:00,
2013-03-29 06:27:00,46.9,46.4,30.03,West,278,3.0,5.0,98,0.00,,,0.00,meteohub,2013-03-29 13:27:00,
2013-03-29 06:32:00,46.9,46.4,30.03,West,278,0.0,5.0,98,0.00,,,0.00,meteohub,2013-03-29 13:32:00,
2013-03-29 06:37:00,46.9,46.4,30.03,West,278,0.0,5.0,98,0.00,,,0.00,meteohub,2013-03-29 13:37:00,
2013-03-29 06:42:00,46.9,46.4,30.03,West,278,0.0,4.0,98,0.00,,,0.00,meteohub,2013-03-29 13:42:00,
2013-03-29 06:52:00,47.1,46.6,30.03,West,278,1.0,2.0,98,0.00,,,0.00,meteohub,2013-03-29 13:52:00,
2013-03-29 07:02:00,47.3,46.8,30.03,West,278,2.0,3.0,98,0.00,,,0.00,meteohub,2013-03-29 14:02:00,
2013-03-29 07:12:00,47.5,46.9,30.03,WNW,282,2.0,3.0,98,0.00,,,0.00,meteohub,2013-03-29 14:12:00,
2013-03-29 07:17:00,47.5,46.9,30.03,WNW,294,5.0,5.0,98,0.00,,,0.00,meteohub,2013-03-29 14:17:00,
2013-03-29 07:22:00,47.5,46.9,30.03,WNW,301,4.0,5.0,98,0.00,,,0.00,meteohub,2013-03-29 14:22:00,
2013-03-29 07:27:00,47.3,46.8,30.04,NW,307,2.0,5.0,98,0.00,,,0.00,meteohub,2013-03-29 14:27:00,
2013-03-29 07:37:00,47.5,46.9,30.04,ENE,67,4.0,5.0,98,0.00,,,0.00,meteohub,2013-03-29 14:37:00,
2013-03-29 07:42:00,47.5,46.9,30.04,NE,50,3.0,5.0,98,0.00,,,0.00,meteohub,2013-03-29 14:42:00,
2013-03-29 07:47:00,47.7,47.1,30.04,NNW,329,3.0,5.0,98,0.00,,,0.00,meteohub,2013-03-29 14:47:00,
2013-03-29 07:52:00,47.8,47.3,30.04,NNE,25,4.0,5.0,98,0.00,,,0.00,meteohub,2013-03-29 14:52:00,
2013-03-29 07:57:00,47.8,47.3,30.04,ENE,57,3.0,5.0,98,0.00,,,0.00,meteohub,2013-03-29 14:57:00,
2013-03-29 08:02:00,47.8,47.3,30.04,ENE,57,2.0,5.0,98,0.00,,,0.00,meteohub,2013-03-29 15:02:00,
2013-03-29 08:07:00,48.0,47.5,30.04,ENE,63,0.0,5.0,98,0.00,,,0.00,meteohub,2013-03-29 15:07:00,
2013-03-29 08:12:00,48.0,47.5,30.04,ENE,61,0.0,5.0,98,0.00,,,0.00,meteohub,2013-03-29 15:12:00,
2013-03-29 08:17:00,48.4,47.8,30.04,NE,49,0.0,3.0,98,0.00,,,0.00,meteohub,2013-03-29 15:17:00,
2013-03-29 08:22:00,48.4,47.8,30.04,ENE,57,1.0,3.0,98,0.00,,,0.00,meteohub,2013-03-29 15:22:00,
2013-03-29 08:27:00,48.6,48.0,30.04,North,5,1.0,5.0,98,0.00,,,0.00,meteohub,2013-03-29 15:27:00,
2013-03-29 08:37:00,48.7,48.2,30.04,NW,321,0.0,5.0,98,0.00,,,0.00,meteohub,2013-03-29 15:37:00,
2013-03-29 08:42:00,48.7,48.2,30.04,WSW,241,0.0,4.0,98,0.00,,,0.00,meteohub,2013-03-29 15:42:00,
2013-03-29 08:52:00,48.9,48.4,30.04,North,355,0.0,4.0,98,0.00,,,0.00,meteohub,2013-03-29 15:52:00,
2013-03-29 08:57:00,49.3,48.7,30.05,NNW,335,2.0,4.0,98,0.00,,,0.00,meteohub,2013-03-29 15:57:00,
2013-03-29 09:02:00,49.3,48.7,30.05,NNE,31,2.0,6.0,98,0.00,,,0.00,meteohub,2013-03-29 16:02:00,
2013-03-29 09:07:00,49.5,48.9,30.05,NNW,344,3.0,6.0,98,0.00,,,0.00,meteohub,2013-03-29 16:07:00,
2013-03-29 09:12:00,49.5,48.9,30.04,NW,304,2.0,6.0,98,0.00,,,0.00,meteohub,2013-03-29 16:12:00,
2013-03-29 09:17:00,49.6,49.1,30.04,ESE,112,0.0,5.0,98,0.00,,,0.00,meteohub,2013-03-29 16:17:00,
2013-03-29 09:22:00,49.6,49.1,30.04,NE,42,0.0,4.0,98,0.00,,,0.00,meteohub,2013-03-29 16:22:00,
2013-03-29 09:27:00,49.6,49.1,30.04,ENE,57,2.0,4.0,98,0.00,,,0.00,meteohub,2013-03-29 16:27:00,
2013-03-29 09:32:00,49.8,49.3,30.04,East,90,3.0,5.0,98,0.00,,,0.00,meteohub,2013-03-29 16:32:00,
2013-03-29 09:42:00,50.0,49.5,30.04,ENE,57,4.0,7.0,98,0.00,,,0.00,meteohub,2013-03-29 16:42:00,
2013-03-29 09:47:00,50.2,49.6,30.04,NE,49,0.0,7.0,98,0.00,,,0.00,meteohub,2013-03-29 16:47:00,
2013-03-29 09:52:00,50.2,49.6,30.04,NE,53,2.0,5.0,98,0.00,,,0.00,meteohub,2013-03-29 16:52:00,
2013-03-29 10:02:00,50.5,50.0,30.04,NE,43,3.0,5.0,98,0.00,,,0.00,meteohub,2013-03-29 17:02:00,
2013-03-29 10:12:00,51.4,51.1,30.04,NE,47,4.0,5.0,99,0.00,,,0.00,meteohub,2013-03-29 17:12:00,
2013-03-29 10:17:00,51.1,50.5,30.04,ENE,74,1.0,7.0,98,0.00,,,0.00,meteohub,2013-03-29 17:17:00,
2013-03-29 10:22:00,51.4,51.1,30.04,East,86,3.0,7.0,99,0.00,,,0.00,meteohub,2013-03-29 17:22:00,
2013-03-29 10:32:00,52.0,51.4,30.04,NE,45,3.0,7.0,98,0.00,,,0.00,meteohub,2013-03-29 17:32:00,
2013-03-29 10:42:00,52.9,52.3,30.04,East,79,1.0,7.0,98,0.00,,,0.00,meteohub,2013-03-29 17:42:00,
2013-03-29 10:52:00,53.2,52.7,30.04,South,188,1.0,8.0,98,0.00,,,0.00,meteohub,2013-03-29 17:52:00,
2013-03-29 10:57:00,54.3,54.0,30.04,East,101,3.0,8.0,99,0.00,,,0.00,meteohub,2013-03-29 17:57:00,
2013-03-29 11:02:00,54.1,53.6,30.04,ENE,78,2.0,8.0,98,0.00,,,0.00,meteohub,2013-03-29 18:02:00,
2013-03-29 11:07:00,55.0,54.7,30.04,East,80,1.0,6.0,99,0.00,,,0.00,meteohub,2013-03-29 18:07:00,
2013-03-29 11:17:00,55.9,55.6,30.04,East,84,6.0,6.0,99,0.00,,,0.00,meteohub,2013-03-29 18:17:00,
2013-03-29 11:22:00,57.0,56.7,30.04,ESE,111,3.0,8.0,99,0.00,,,0.00,meteohub,2013-03-29 18:22:00,
2013-03-29 11:27:00,57.4,56.8,30.04,ENE,68,3.0,8.0,98,0.00,,,0.00,meteohub,2013-03-29 18:27:00,
2013-03-29 11:37:00,58.5,57.4,30.04,East,90,3.0,8.0,96,0.00,,,0.00,meteohub,2013-03-29 18:37:00,
2013-03-29 11:42:00,58.8,57.4,30.04,East,83,1.0,8.0,95,0.00,,,0.00,meteohub,2013-03-29 18:42:00,
2013-03-29 11:47:00,59.7,58.3,30.04,ENE,69,4.0,7.0,95,0.00,,,0.00,meteohub,2013-03-29 18:47:00,
2013-03-29 11:52:00,60.4,58.5,30.04,ESE,104,5.0,7.0,93,0.00,,,0.00,meteohub,2013-03-29 18:52:00,
2013-03-29 12:02:00,62.8,58.5,30.04,East,90,2.0,9.0,86,0.00,,,0.00,meteohub,2013-03-29 19:02:00,
2013-03-29 12:12:00,64.4,58.1,30.03,East,97,7.0,8.0,80,0.00,,,0.00,meteohub,2013-03-29 19:12:00,
2013-03-29 12:17:00,64.4,57.7,30.03,ESE,109,11.0,11.0,79,0.00,,,0.00,meteohub,2013-03-29 19:17:00,
2013-03-29 12:22:00,64.9,57.9,30.03,East,96,7.0,11.0,78,0.00,,,0.00,meteohub,2013-03-29 19:22:00,
2013-03-29 12:32:00,66.2,58.5,30.03,ESE,104,5.0,11.0,76,0.00,,,0.00,meteohub,2013-03-29 19:32:00,
2013-03-29 12:42:00,66.9,59.2,30.03,SE,137,4.0,11.0,76,0.00,,,0.00,meteohub,2013-03-29 19:42:00,
2013-03-29 12:47:00,66.9,58.3,30.03,East,98,6.0,10.0,74,0.00,,,0.00,meteohub,2013-03-29 19:47:00,
2013-03-29 12:52:00,67.5,59.2,30.03,SE,133,5.0,11.0,75,0.00,,,0.00,meteohub,2013-03-29 19:52:00,
2013-03-29 12:57:00,66.9,58.3,30.02,ESE,112,5.0,11.0,74,0.00,,,0.00,meteohub,2013-03-29 19:57:00,
2013-03-29 13:07:00,67.8,57.7,30.02,SE,137,4.0,14.0,70,0.00,,,0.00,meteohub,2013-03-29 20:07:00,
2013-03-29 13:12:00,67.8,58.5,30.02,SSE,157,9.0,14.0,72,0.00,,,0.00,meteohub,2013-03-29 20:12:00,
2013-03-29 13:22:00,67.6,57.9,30.02,ESE,122,9.0,12.0,71,0.00,,,0.00,meteohub,2013-03-29 20:22:00,
2013-03-29 13:27:00,68.0,58.6,30.02,SE,131,9.0,12.0,72,0.00,,,0.00,meteohub,2013-03-29 20:27:00,
2013-03-29 13:32:00,68.0,57.4,30.02,ESE,118,12.0,12.0,69,0.00,,,0.00,meteohub,2013-03-29 20:32:00,
2013-03-29 13:37:00,67.8,57.7,30.02,ESE,108,3.0,14.0,70,0.00,,,0.00,meteohub,2013-03-29 20:37:00,
2013-03-29 13:42:00,67.8,57.2,30.02,ESE,117,10.0,14.0,69,0.00,,,0.00,meteohub,2013-03-29 20:42:00,
2013-03-29 13:52:00,69.6,58.1,30.02,SE,139,8.0,11.0,67,0.00,,,0.00,meteohub,2013-03-29 20:52:00,
2013-03-29 13:57:00,70.0,59.0,30.01,SE,125,10.0,12.0,68,0.00,,,0.00,meteohub,2013-03-29 20:57:00,
2013-03-29 14:02:00,68.9,57.0,30.01,SE,136,4.0,12.0,66,0.00,,,0.00,meteohub,2013-03-29 21:02:00,
2013-03-29 14:07:00,68.4,57.7,30.01,ESE,123,8.0,11.0,69,0.00,,,0.00,meteohub,2013-03-29 21:07:00,
2013-03-29 14:12:00,68.9,57.6,30.01,ESE,106,7.0,11.0,67,0.00,,,0.00,meteohub,2013-03-29 21:12:00,
2013-03-29 14:17:00,69.6,57.4,30.01,ESE,117,7.0,11.0,65,0.00,,,0.00,meteohub,2013-03-29 21:17:00,
2013-03-29 14:22:00,69.4,57.9,30.01,SE,128,8.0,12.0,67,0.00,,,0.00,meteohub,2013-03-29 21:22:00,
2013-03-29 14:27:00,70.2,57.9,30.00,SE,125,6.0,12.0,65,0.00,,,0.00,meteohub,2013-03-29 21:27:00,
2013-03-29 14:32:00,70.0,58.1,30.00,SE,127,3.0,12.0,66,0.00,,,0.00,meteohub,2013-03-29 21:32:00,
2013-03-29 14:37:00,69.6,58.1,30.00,ESE,123,8.0,11.0,67,0.00,,,0.00,meteohub,2013-03-29 21:37:00,
2013-03-29 14:42:00,71.1,57.4,30.00,ESE,112,8.0,11.0,62,0.00,,,0.00,meteohub,2013-03-29 21:42:00,
2013-03-29 14:47:00,71.1,57.4,30.00,ESE,113,11.0,11.0,62,0.00,,,0.00,meteohub,2013-03-29 21:47:00,
2013-03-29 14:52:00,70.7,56.7,30.00,ESE,115,9.0,12.0,61,0.00,,,0.00,meteohub,2013-03-29 21:52:00,
2013-03-29 14:57:00,71.1,57.7,29.99,ESE,103,5.0,12.0,63,0.00,,,0.00,meteohub,2013-03-29 21:57:00,
2013-03-29 15:07:00,71.4,57.2,29.99,SSE,160,4.0,12.0,61,0.00,,,0.00,meteohub,2013-03-29 22:07:00,
2013-03-29 15:12:00,71.1,57.7,29.99,SSE,153,9.0,13.0,63,0.00,,,0.00,meteohub,2013-03-29 22:12:00,
2013-03-29 15:17:00,71.4,57.7,29.99,SE,146,5.0,13.0,62,0.00,,,0.00,meteohub,2013-03-29 22:17:00,
2013-03-29 15:27:00,71.6,56.1,29.99,SSE,161,7.0,10.0,58,0.00,,,0.00,meteohub,2013-03-29 22:27:00,
2013-03-29 15:32:00,71.1,58.3,29.99,SE,145,5.0,11.0,64,0.00,,,0.00,meteohub,2013-03-29 22:32:00,
2013-03-29 15:42:00,71.2,57.6,29.99,South,170,4.0,11.0,62,0.00,,,0.00,meteohub,2013-03-29 22:42:00,
2013-03-29 15:47:00,72.1,57.6,29.99,ESE,123,5.0,8.0,60,0.00,,,0.00,meteohub,2013-03-29 22:47:00,
2013-03-29 15:52:00,72.1,58.5,29.99,SE,126,3.0,7.0,62,0.00,,,0.00,meteohub,2013-03-29 22:52:00,
2013-03-29 16:02:00,68.9,58.6,29.99,WNW,297,7.0,9.0,70,0.00,,,0.00,meteohub,2013-03-29 23:02:00,
2013-03-29 16:07:00,66.0,58.3,29.99,WNW,289,9.0,10.0,76,0.00,,,0.00,meteohub,2013-03-29 23:07:00,
2013-03-29 16:12:00,64.8,57.7,29.99,West,277,10.0,12.0,78,0.00,,,0.00,meteohub,2013-03-29 23:12:00,
2013-03-29 16:17:00,63.7,57.4,29.99,WNW,301,11.0,12.0,80,0.00,,,0.00,meteohub,2013-03-29 23:17:00,
2013-03-29 16:22:00,62.4,56.1,29.99,West,279,13.0,18.0,80,0.00,,,0.00,meteohub,2013-03-29 23:22:00,
2013-03-29 16:27:00,61.7,56.1,29.99,WNW,285,9.0,18.0,82,0.00,,,0.00,meteohub,2013-03-29 23:27:00,
2013-03-29 16:32:00,60.6,55.0,29.99,WNW,288,12.0,18.0,82,0.00,,,0.00,meteohub,2013-03-29 23:32:00,
2013-03-29 16:42:00,59.2,54.3,29.99,WNW,291,11.0,15.0,84,0.00,,,0.00,meteohub,2013-03-29 23:42:00,
2013-03-29 16:52:00,58.8,54.3,29.99,WNW,290,7.0,15.0,85,0.00,,,0.00,meteohub,2013-03-29 23:52:00,
2013-03-29 16:57:00,58.8,54.3,29.99,West,281,11.0,15.0,85,0.00,,,0.00,meteohub,2013-03-29 23:57:00,
2013-03-29 17:02:00,59.2,55.0,29.99,WNW,284,10.0,14.0,86,0.00,,,0.00,meteohub,2013-03-30 00:02:00,
2013-03-29 17:12:00,59.7,55.2,29.99,WNW,298,12.0,13.0,85,0.00,,,0.00,meteohub,2013-03-30 00:12:00,
2013-03-29 17:17:00,59.5,55.0,29.99,WNW,286,10.0,14.0,85,0.00,,,0.00,meteohub,2013-03-30 00:17:00,
2013-03-29 17:22:00,59.5,55.4,29.99,West,281,11.0,14.0,86,0.00,,,0.00,meteohub,2013-03-30 00:22:00,
2013-03-29 17:27:00,59.4,55.2,29.99,WNW,286,10.0,14.0,86,0.00,,,0.00,meteohub,2013-03-30 00:27:00,
2013-03-29 17:32:00,59.2,55.0,29.99,WNW,283,6.0,13.0,86,0.00,,,0.00,meteohub,2013-03-30 00:32:00,
2013-03-29 17:42:00,58.5,54.7,29.99,WNW,294,5.0,12.0,87,0.00,,,0.00,meteohub,2013-03-30 00:42:00,
2013-03-29 17:47:00,58.3,54.5,29.99,WNW,293,9.0,11.0,87,0.00,,,0.00,meteohub,2013-03-30 00:47:00,
2013-03-29 17:52:00,57.7,54.0,29.99,WNW,292,7.0,14.0,87,0.00,,,0.00,meteohub,2013-03-30 00:52:00,
2013-03-29 18:02:00,57.6,54.0,29.99,WNW,296,7.0,14.0,88,0.00,,,0.00,meteohub,2013-03-30 01:02:00,
2013-03-29 18:07:00,57.4,53.6,29.99,West,273,5.0,11.0,87,0.00,,,0.00,meteohub,2013-03-30 01:07:00,
2013-03-29 18:12:00,57.0,53.4,29.99,WNW,295,5.0,11.0,88,0.00,,,0.00,meteohub,2013-03-30 01:12:00,
2013-03-29 18:22:00,56.1,52.7,29.99,West,280,8.0,11.0,88,0.00,,,0.00,meteohub,2013-03-30 01:22:00,
2013-03-29 18:27:00,55.8,52.5,29.99,West,279,9.0,11.0,89,0.00,,,0.00,meteohub,2013-03-30 01:27:00,
2013-03-29 18:32:00,55.2,52.0,29.99,WNW,286,8.0,12.0,89,0.00,,,0.00,meteohub,2013-03-30 01:32:00,
2013-03-29 18:37:00,55.0,52.2,29.99,WNW,284,7.0,12.0,90,0.00,,,0.00,meteohub,2013-03-30 01:37:00,
2013-03-29 18:47:00,54.7,51.8,29.99,West,278,6.0,10.0,90,0.00,,,0.00,meteohub,2013-03-30 01:47:00,
2013-03-29 18:52:00,54.3,51.4,29.99,WNW,288,3.0,10.0,90,0.00,,,0.00,meteohub,2013-03-30 01:52:00,
2013-03-29 18:57:00,54.1,51.6,29.99,SW,222,4.0,9.0,91,0.00,,,0.00,meteohub,2013-03-30 01:57:00,
2013-03-29 19:07:00,54.0,51.4,29.99,WSW,239,4.0,8.0,91,0.00,,,0.00,meteohub,2013-03-30 02:07:00,
2013-03-29 19:12:00,53.8,51.3,29.99,West,273,5.0,8.0,91,0.00,,,0.00,meteohub,2013-03-30 02:12:00,
2013-03-29 19:22:00,53.4,51.1,29.99,WSW,256,4.0,8.0,92,0.00,,,0.00,meteohub,2013-03-30 02:22:00,
2013-03-29 19:32:00,53.2,50.9,29.98,WNW,282,5.0,9.0,92,0.00,,,0.00,meteohub,2013-03-30 02:32:00,
2013-03-29 19:37:00,53.2,50.9,29.98,West,279,5.0,9.0,92,0.00,,,0.00,meteohub,2013-03-30 02:37:00,
2013-03-29 19:42:00,53.2,50.9,29.98,West,278,5.0,9.0,92,0.00,,,0.00,meteohub,2013-03-30 02:42:00,
2013-03-29 19:47:00,53.1,50.7,29.98,West,279,5.0,8.0,92,0.00,,,0.00,meteohub,2013-03-30 02:47:00,
2013-03-29 19:52:00,52.9,50.5,29.98,West,279,3.0,7.0,92,0.00,,,0.00,meteohub,2013-03-30 02:52:00,
2013-03-29 19:57:00,52.7,50.4,29.99,West,279,3.0,7.0,92,0.00,,,0.00,meteohub,2013-03-30 02:57:00,
2013-03-29 20:02:00,52.7,50.7,29.99,West,280,2.0,7.0,93,0.00,,,0.00,meteohub,2013-03-30 03:02:00,
2013-03-29 20:07:00,52.7,50.7,29.99,West,280,2.0,5.0,93,0.00,,,0.00,meteohub,2013-03-30 03:07:00,
2013-03-29 20:12:00,52.5,50.5,29.99,West,280,5.0,5.0,93,0.00,,,0.00,meteohub,2013-03-30 03:12:00,
2013-03-29 20:22:00,52.5,50.5,29.99,WNW,284,3.0,6.0,93,0.00,,,0.00,meteohub,2013-03-30 03:22:00,
2013-03-29 20:27:00,52.5,50.5,29.99,WNW,284,3.0,6.0,93,0.00,,,0.00,meteohub,2013-03-30 03:27:00,
2013-03-29 20:32:00,52.5,50.5,29.99,WNW,299,4.0,6.0,93,0.00,,,0.00,meteohub,2013-03-30 03:32:00,
2013-03-29 20:37:00,52.3,50.4,29.99,NW,306,3.0,5.0,93,0.00,,,0.00,meteohub,2013-03-30 03:37:00,
2013-03-29 20:42:00,52.3,50.4,29.99,NW,306,3.0,5.0,93,0.00,,,0.00,meteohub,2013-03-30 03:42:00,
2013-03-29 20:47:00,52.3,50.4,29.99,NW,306,4.0,5.0,93,0.00,,,0.00,meteohub,2013-03-30 03:47:00,
2013-03-29 20:52:00,52.3,50.4,29.99,NW,304,2.0,4.0,93,0.00,,,0.00,meteohub,2013-03-30 03:52:00,
2013-03-29 21:02:00,52.3,50.4,30.00,NW,304,0.0,4.0,93,0.00,,,0.00,meteohub,2013-03-30 04:02:00,
2013-03-29 21:07:00,52.3,50.4,30.00,NW,304,2.0,4.0,93,0.00,,,0.00,meteohub,2013-03-30 04:07:00,
2013-03-29 21:12:00,52.3,50.4,30.01,NW,304,4.0,4.0,93,0.00,,,0.00,meteohub,2013-03-30 04:12:00,
2013-03-29 21:17:00,52.2,50.2,30.01,WNW,291,5.0,9.0,93,0.00,,,0.00,meteohub,2013-03-30 04:17:00,
2013-03-29 21:27:00,51.8,50.2,30.00,WNW,283,9.0,10.0,94,0.00,,,0.00,meteohub,2013-03-30 04:27:00,
2013-03-29 21:32:00,51.6,50.0,30.00,WNW,284,6.0,12.0,94,0.00,,,0.00,meteohub,2013-03-30 04:32:00,
2013-03-29 21:37:00,51.4,49.8,30.00,West,281,4.0,12.0,94,0.00,,,0.00,meteohub,2013-03-30 04:37:00,
2013-03-29 21:42:00,51.3,49.8,30.01,WNW,285,2.0,12.0,95,0.00,,,0.00,meteohub,2013-03-30 04:42:00,
2013-03-29 21:47:00,51.3,49.8,30.01,WNW,285,2.0,12.0,95,0.00,,,0.00,meteohub,2013-03-30 04:47:00,
2013-03-29 21:52:00,51.3,49.8,30.01,WNW,284,6.0,9.0,95,0.00,,,0.00,meteohub,2013-03-30 04:52:00,
2013-03-29 21:57:00,51.3,49.8,30.02,WNW,284,4.0,7.0,95,0.00,,,0.00,meteohub,2013-03-30 04:57:00,
2013-03-29 22:02:00,51.1,49.6,30.02,WNW,302,6.0,7.0,95,0.00,,,0.00,meteohub,2013-03-30 05:02:00,
2013-03-29 22:07:00,51.1,49.6,30.02,WNW,301,5.0,9.0,95,0.00,,,0.00,meteohub,2013-03-30 05:07:00,
2013-03-29 22:12:00,51.1,49.6,30.02,WNW,294,4.0,9.0,95,0.00,,,0.00,meteohub,2013-03-30 05:12:00,
2013-03-29 22:17:00,50.9,49.5,30.02,West,279,4.0,8.0,95,0.00,,,0.00,meteohub,2013-03-30 05:17:00,
2013-03-29 22:22:00,50.7,49.3,30.02,West,279,1.0,8.0,95,0.00,,,0.00,meteohub,2013-03-30 05:22:00,
2013-03-29 22:27:00,50.7,49.3,30.02,West,279,2.0,8.0,95,0.00,,,0.00,meteohub,2013-03-30 05:27:00,
2013-03-29 22:32:00,50.7,49.6,30.02,West,279,3.0,5.0,96,0.00,,,0.00,meteohub,2013-03-30 05:32:00,
2013-03-29 22:37:00,50.7,49.6,30.02,West,279,2.0,5.0,96,0.00,,,0.00,meteohub,2013-03-30 05:37:00,
2013-03-29 22:42:00,50.5,49.5,30.01,West,279,1.0,5.0,96,0.00,,,0.00,meteohub,2013-03-30 05:42:00,
2013-03-29 22:47:00,50.5,49.5,30.01,West,279,2.0,5.0,96,0.00,,,0.00,meteohub,2013-03-30 05:47:00,
2013-03-29 22:52:00,50.5,49.5,30.01,West,279,8.0,8.0,96,0.00,,,0.00,meteohub,2013-03-30 05:52:00,
2013-03-29 22:57:00,50.5,49.5,30.00,West,281,8.0,8.0,96,0.00,,,0.00,meteohub,2013-03-30 05:57:00,
2013-03-29 23:02:00,50.4,49.3,30.00,West,281,0.0,10.0,96,0.00,,,0.00,meteohub,2013-03-30 06:02:00,
2013-03-29 23:07:00,50.4,49.3,30.00,WNW,282,3.0,10.0,96,0.00,,,0.00,meteohub,2013-03-30 06:07:00,
2013-03-29 23:12:00,50.4,49.3,30.03,WNW,282,2.0,10.0,96,0.00,,,0.00,meteohub,2013-03-30 06:12:00,
2013-03-29 23:17:00,50.4,49.3,30.03,West,273,3.0,7.0,96,0.00,,,0.00,meteohub,2013-03-30 06:17:00,
2013-03-29 23:22:00,50.4,49.3,30.03,West,273,5.0,7.0,96,0.00,,,0.00,meteohub,2013-03-30 06:22:00,
2013-03-29 23:27:00,50.2,49.1,30.02,West,273,6.0,7.0,96,0.00,,,0.00,meteohub,2013-03-30 06:27:00,
2013-03-29 23:32:00,50.2,49.1,30.02,West,275,3.0,8.0,96,0.00,,,0.00,meteohub,2013-03-30 06:32:00,
2013-03-29 23:42:00,50.0,49.1,30.02,West,275,1.0,8.0,97,0.00,,,0.00,meteohub,2013-03-30 06:42:00,
2013-03-29 23:47:00,50.0,49.1,30.02,West,275,3.0,7.0,97,0.00,,,0.00,meteohub,2013-03-30 06:47:00,
2013-03-29 23:57:00,49.8,48.7,30.01,WNW,297,4.0,8.0,96,0.00,,,0.00,meteohub,2013-03-30 06:57:00,